EET,Max TemperatureF,Mean TemperatureF,Min TemperatureF,Max Dew PointF,MeanDew PointF,Min DewpointF,Max Humidity, Mean Humidity, Min Humidity, Max Sea Level PressureIn, Mean Sea Level PressureIn, Min Sea Level PressureIn, Max VisibilityMiles, Mean VisibilityMiles, Min VisibilityMiles, Max Wind SpeedMPH, Mean Wind SpeedMPH, Max Gust SpeedMPH,PrecipitationIn, CloudCover, Events, WindDirDegrees
2012-11-1,76,69,62,68,58,52,88,68,49,29.84,29.73,29.68,6,6,5,17,9,,0.03,7,Rain,152
2012-11-2,73,65,57,64,57,54,94,77,46,29.95,29.87,29.77,6,6,2,9,1,,0.00,2,,296
2012-11-3,72,63,54,57,54,52,94,74,41,30.06,30.02,29.95,6,6,6,7,1,,0.00,2,,326
2012-11-4,72,64,55,57,55,52,88,74,50,30.09,30.07,30.04,6,6,6,6,1,,0.00,5,,339
2012-11-5,70,62,55,63,58,50,88,78,60,30.06,30.02,29.98,6,6,6,8,4,,0.00,5,,147
2012-11-6,77,70,60,68,62,57,88,75,44,30.06,29.99,29.95,6,6,6,12,6,,0.00,4,,215
2012-11-7,68,63,58,63,59,52,94,82,68,30.09,30.05,30.01,6,6,5,21,2,,0.16,6,Rain,300
2012-11-8,66,57,46,50,46,41,82,64,35,30.12,30.08,30.04,6,6,6,16,8,,0.00,2,,3
2012-11-9,66,54,41,52,45,37,93,70,37,30.09,30.04,30.01,6,6,6,6,0,,0.00,1,,340
2012-11-10,69,58,47,50,46,39,93,66,33,30.15,30.07,30.01,6,6,6,8,1,,0.00,1,,348
2012-11-11,70,58,45,48,46,40,87,64,30,30.24,30.21,30.18,6,6,6,7,1,,0.00,3,,35
2012-11-12,65,54,44,52,47,42,94,75,42,30.27,30.23,30.18,6,6,6,10,2,,0.00,5,,17
2012-11-13,68,56,45,52,48,43,93,73,46,30.22,30.16,30.09,6,6,6,8,1,,0.00,2,,11
2012-11-14,70,58,45,55,49,39,88,71,40,30.15,30.12,30.09,6,6,6,5,1,,0.00,,,50
2012-11-15,71,58,45,50,45,16,93,62,15,30.13,30.08,30.04,6,6,6,9,1,,0.00,3,,114
2012-11-16,70,58,46,52,47,41,88,70,40,30.04,30.03,29.98,6,6,6,7,0,,0.00,4,,25
2012-11-17,73,58,44,52,47,41,93,71,32,30.01,29.98,29.92,6,6,6,8,1,,0.00,1,,13
2012-11-18,70,57,44,54,50,43,93,73,38,30.02,30.00,29.98,6,6,6,5,0,,0.00,5,,58
2012-11-19,67,60,54,57,53,50,88,79,52,30.01,29.95,29.89,6,6,5,12,1,,0.35,7,Rain,98
2012-11-20,67,61,55,57,54,50,94,78,57,29.98,29.92,29.86,6,6,3,10,7,,0.43,6,Rain-Thunderstorm,137
2012-11-21,70,62,53,55,54,51,94,80,49,30.04,29.99,29.95,6,6,6,6,1,,0.00,5,Rain-Thunderstorm,100
2012-11-22,68,58,48,54,48,41,82,66,36,30.15,30.09,30.04,6,6,6,16,6,,0.00,2,,13
2012-11-23,65,54,43,50,46,39,93,73,45,30.21,30.17,30.15,6,6,6,7,1,,0.00,3,,340
2012-11-24,66,57,48,54,50,45,93,78,55,30.18,30.15,30.12,6,6,6,8,2,,0.00,1,,355
2012-11-25,67,55,43,52,48,41,94,77,48,30.19,30.16,30.12,6,6,6,5,0,,0.00,,,300
2012-11-26,67,56,44,52,48,41,88,74,43,30.18,30.13,30.09,6,6,6,5,0,,0.00,1,,320
2012-11-27,65,56,46,55,51,43,88,74,45,30.12,30.06,30.04,6,6,6,8,2,,0.00,4,,150
2012-11-28,69,64,58,61,55,50,88,72,60,30.12,29.95,29.89,6,6,4,21,10,,0.08,5,Rain,149
2012-11-29,68,62,55,63,55,52,94,73,50,29.86,29.73,29.65,6,6,4,29,13,40,0.43,5,Rain-Thunderstorm,156
2012-11-30,68,60,52,55,50,46,94,72,35,29.80,29.77,29.74,6,6,6,16,4,,0.63,3,Rain,157